sat.trackr.live / text

‹ back to catalog

STARLINK-31685

NORAD 59578 · 2024-076Q

PAYLOAD ACTIVE UNKNOWN

§ Identity

Operator
Country
US
Launch date
2024-04-23
Launch site
AFETR
Launch vehicle
Mass (kg)
RCS (m²)

Purposes: comms

External: N2YO · Heavens-Above · Gunter

§ Orbital elements

Epoch: 2026-05-25T02:31:50.307168Z

Period
94.27 min
Inclination
42.9992°
Eccentricity
0.0001174
Mean motion
15.27587005 rev/d
Perigee alt
482.2 km
Apogee alt
483.8 km
Semi-major
6,861.2 km
B*
2.3734e-4
RAAN
297.0808°
Arg perigee
273.9842°
Mean anomaly
86.0876°
Rev number
11,819

§ Raw data

STARLINK-316851 59578U 24076Q   26145.10544337  .00006276  00000+0  23734-3 0  99902 59578  42.9992 297.0808 0001174 273.9842  86.0876 15.27587005118198

JSON: /api/v1/satellites/59578 · /tle

For live sub-satellite position, see the globe view (requires WebGL).

§ Visibility from observer

Set your observer location to see the next 7 days of passes ≥ 10°. The values pass through the URL so the page stays shareable.

No JS? Fill the form by hand. The geolocation button needs JavaScript.